AirNav   Air Wisconsin Up To $57,000 Bonus
 
 499 users online  

4CO2 Owl Canyon Gliderport
Wellington, Colorado, USA

GOING TO WELLINGTON?


FAA INFORMATION EFFECTIVE 26 MARCH 2020

Location

FAA Identifier: 4CO2
Lat/Long: 40-48-16.9380N 104-59-05.9000W
40-48.282300N 104-59.098333W
40.8047050,-104.9849722
(estimated)
Elevation: 5545 ft. / 1690 m (estimated)
Variation: 12E (1985)
From city: 6 miles N of WELLINGTON, CO
Time zone: UTC -6 (UTC -7 during Standard Time)
Zip code: 80549

Gliderport Operations

Gliderport use: Private use. Permission required prior to landing
Activation date: 11/1974
Control tower: no
ARTCC: DENVER CENTER
FSS: DENVER FLIGHT SERVICE STATION
Attendance: SAT-SUN 0900-1700
Wind indicator: yes
Segmented circle: no

Gliderport Communications

  • COMS AVBL ON FREQ 123.3.

Nearby radio navigation aids

VOR radial/distance  VOR name  Freq  Var
CYSr188/26.2CHEYENNE VORTAC113.1013E
GLLr300/26.7GILL VOR/DME114.2013E

Gliderport Services

Airframe service: NONE
Powerplant service: NONE

Runway Information

Runway 1L/19R

Dimensions: 3000 x 16 ft. / 914 x 5 m
Surface: asphalt/turf
RWY 01L/19R - 2000 FT ASPH; 2000 FT TURF.
RUNWAY 1L  RUNWAY 19R
Traffic pattern: leftleft
Obstructions: fencenone

Runway 1R/19L

Dimensions: 3000 x 24 ft. / 914 x 7 m
Surface: turf
RUNWAY 1R  RUNWAY 19L
Traffic pattern: leftleft
Obstructions: fencenone

Runway 15/33

Dimensions: 2500 x 50 ft. / 762 x 15 m
Surface: turf
RUNWAY 15  RUNWAY 33
Traffic pattern: leftleft
Obstructions: nonefence

Runway 9/27

Dimensions: 1800 x 50 ft. / 549 x 15 m
Surface: turf
RUNWAY 9  RUNWAY 27
Traffic pattern: leftleft

Gliderport Ownership and Management from official FAA records

Ownership: Privately-owned
Owner: COLORADO SOARING ASSN.
4598 HACKAMORE ROAD
WELLINGTON, CO 80549
Phone 970-568-7627
Manager: BOARD OF DIRECTORS
4598 HACKAMORE ROAD
WELLINGTON, CO 80549
Phone 970-568-7627
COLORADO SOARING ASSN.

Gliderport Operational Statistics

Aircraft based on the field: 25
Single engine airplanes: 3
Gliders airplanes: 22
    

Additional Remarks

TFC PAT: GLIDERS REMAIN SOUTH AND WEST OF FIELD. POWERED TFC (AIRPLANES, HELS, ULTRALIGHTS) REMAIN NORTH AND EAST OF FIELD.
ABNDD ROAD RUNNING N/S INTERSECTS DIRT PTN OF RWY 01L/19R N END.
FOR CD CTC DENVER APCH AT 303-342-1916.

Instrument Procedures

There are no published instrument procedures at 4CO2.

Some nearby airports with instrument procedures:

KFNL - Northern Colorado Regional Airport (21 nm S)
KCYS - Cheyenne Regional Airport/Jerry Olson Field (22 nm N)
KGXY - Greeley-Weld County Airport (27 nm SE)
KLMO - Vance Brand Airport (39 nm S)
KLAR - Laramie Regional Airport (44 nm NW)
 
Loc | Ops | Rwys | IFR | FBO | Links
Com | Nav | Svcs | Stats | Notes

AirBoss

 
Area around 4CO2 (Owl Canyon Gliderport)
 
Road maps at: MapQuest Bing Google
 
Aerial photo
No photo
 
Sectional chart

 
Airport distance calculator
Flying to Owl Canyon Gliderport? Find the distance to fly.

From to 4CO2

Sunrise and sunset
Times for 04-Apr-2020
 Local
(UTC-6)
 Zulu
(UTC)
Morning civil twilight06:1012:10
Sunrise06:3812:38
Sunset19:2801:28
Evening civil twilight19:5501:55

Current date and time
Zulu (UTC)  05-Apr-2020 04:21:31
Local (UTC-6)  04-Apr-2020 22:21:31
 
METAR
KFEW 
20nm N 
050358Z AUTO 19009KT 10SM FEW160 03/M07 A2986 RMK AO2 SLP106 T00251069 $
KFNL 
21nm S 
050356Z 18007KT 10SM FEW090 06/M03 A2982 RMK AO2 SLP096 T00611028
KCYS 
22nm N 
050353Z AUTO 18009G18KT 10SM CLR 06/M07 A2983 RMK AO2 SLP086 T00611067
KGXY 
29nm SE 
050356Z AUTO 16013KT 10SM CLR 09/M03 A2982 RMK AO2 SLP106 T00891028
KLMO 
39nm S 
050355Z AUTO 30005KT 10SM CLR 08/M01 A2983 RMK AO2 T00751011
TAF
KCYS 
22nm N 
041727Z 0418/0518 19015G22KT P6SM BKN150 FM042300 19008KT P6SM BKN100 FM050300 VRB05KT P6SM SCT150
NOTAMs
Click for the latest NOTAMs
NOTAMs are issued by the DoD/FAA and will open in a separate window not controlled by AirNav.

 

 
 

Would you like to see your business listed on this page?

 If your business provides an interesting product or service to pilots, flight crews, aircraft, or users of the Owl Canyon Gliderport, you should consider listing it here.  To start the listing process, click on the button below
 
Add a business
 

Other Pages about Owl Canyon Gliderport

soarcsa.org
 
Update a link
 
Copyright © AirNav, LLC. All rights reserved. Privacy Policy  Contact